[[{"header":{"parameterUnit":"m.s-1","parameterCategory":1,"la1":30.2991,"la2":30.254,"lo1":-89.0895,"lo2":-89.0444,"dy":0.0017,"dx":0.0017,"nx":28,"ny":28,"refTime":"2025-02-25T09:00:00:Z","depth":0,"parameterNumber":2,"parameterNumberName":"U-component_of_WINDS"},"data":[0,0,0,0,0,0,0,0,0,0,0,0,0,0,0,0,0,0,0,0,0,0,0,0,0,0,0,0,0,0,0,0,0,0,0,0,0,0,0,0,0,0,0,0,0,0,0,0,0,0,0,0,0,0,0,0,0,0,0.7221,0.7221,0,0.7175,0.7174,0.7174,0.7108,0.7107,0.7105,0.7104,0.7057,0.7057,0.7057,0,0,0,0,0,0,0,0,0,0,0,0,0,0.7255,0.7254,0.7221,0.7221,0.722,0.7175,0.7174,0.7173,0.7108,0.7107,0.7105,0.7104,0.7057,0.7057,0.7057,0,0,0,0,0,0,0,0,0,0,0,0,0,0.7227,0.7254,0.7222,0.7182,0.7178,0.7175,0.7174,0.7173,0.7108,0.7106,0.7105,0.7103,0.7057,0.7057,0.7057,0.7089,0,0,0.7056,0.7056,0,0,0,0,0,0,0,0,0.7229,0.7226,0.7188,0.7185,0.718,0.7145,0.7168,0.7145,0.7109,0.7135,0.7104,0.7102,0.7088,0.7085,0.708,0.7087,0.7085,0.7056,0.7056,0.7056,0.7056,0,0,0,0,0,0,0,0.7231,0.7228,0.7203,0.7188,0.7183,0.7167,0.7161,0.7164,0.7121,0.7132,0.7127,0.7123,0.7085,0.7081,0.7078,0.7084,0.7056,0.7056,0.7055,0.7055,0.7115,0.7116,0,0,0,0,0,0,0.7239,0.723,0.7204,0.7201,0.7201,0.7168,0.7161,0.7158,0.7121,0.7114,0.7124,0.712,0.7082,0.7079,0.7077,0.7112,0.7056,0.7055,0.7055,0.7113,0.7115,0.7117,0,0,0,0,0,0,0.724,0.7237,0.7206,0.7214,0.7209,0.7169,0.7166,0.7158,0.7153,0.7115,0.7107,0.7127,0.708,0.7077,0.7086,0.7109,0.7055,0.7055,0.7111,0.7114,0.7116,0.7183,0,0,0,0,0,0,0.7241,0.7238,0.7249,0.7215,0.7209,0.7217,0.7167,0.7158,0.7153,0.7147,0.7116,0.7109,0.7079,0.7087,0.7086,0.7108,0.7055,0.7109,0.7112,0.7115,0.7178,0.7187,0.7195,0,0,0,0,0,0.7242,0.727,0.725,0.7248,0.7223,0.7218,0.7215,0.7179,0.7155,0.7166,0.7142,0.711,0.7107,0.7089,0.7087,0.7109,0.7107,0.7111,0.7115,0.7175,0.7186,0.7195,0,0,0,0,0,0,0.7308,0.7265,0.7242,0.726,0.7243,0.7207,0.722,0.7192,0.7182,0.7177,0.7134,0.7127,0.7142,0.7126,0.7107,0.7138,0.7102,0.7106,0.7148,0.7158,0.7166,0.717,0.7054,0,0,0,0,0,0.7325,0.7325,0.7287,0.7306,0.7299,0.7261,0.7258,0.7232,0.7213,0.7206,0.7182,0.7165,0.7161,0.7158,0.7152,0.7176,0.7168,0.719,0.7198,0.7205,0.7209,0.7221,0.723,0.713,0.713,0.713,0,0,0.7359,0.7335,0.7338,0.7319,0.7303,0.7304,0.7256,0.7259,0.7259,0.7206,0.7214,0.7196,0.7174,0.7191,0.7197,0.7178,0.7235,0.721,0.7216,0.7216,0.7226,0.7236,0.7244,0.7133,0.7132,0.7132,0,0,0.7422,0.7404,0.7418,0.7403,0.738,0.7354,0.7358,0.7326,0.7312,0.7319,0.7279,0.7279,0.7272,0.7258,0.725,0.7309,0.7279,0.7308,0.7352,0.7364,0.7372,0.7378,0.74,0.7408,0.7312,0.7312,0.7312,0,0.7468,0.7468,0.7429,0.7435,0.7428,0.7379,0.7394,0.7381,0.7357,0.7353,0.7332,0.7322,0.7304,0.7317,0.7331,0.7326,0.7329,0.7311,0.7373,0.738,0.7386,0.7405,0.7414,0.7315,0.7315,0.7315,0.7314,0,0.7525,0.7526,0.754,0.7518,0.7512,0.7522,0.7485,0.7484,0.7459,0.7436,0.7444,0.7421,0.7409,0.741,0.7385,0.742,0.7409,0.7381,0.7344,0.74,0.7417,0.7425,0.7321,0.7319,0.7318,0.7317,0,0,0.7629,0.7585,0.7591,0.758,0.7551,0.7551,0.7559,0.7547,0.7547,0.7532,0.7538,0.7533,0.7507,0.7498,0.7472,0.7482,0.753,0.7453,0.7452,0.7469,0.7567,0.7589,0.7598,0.751,0.7512,0.7513,0.7569,0,0.7687,0.7698,0.7663,0.7683,0.7683,0.7638,0.7644,0.7627,0.7607,0.7604,0.7581,0.7578,0.7544,0.7539,0.7547,0.7523,0.755,0.7518,0.7516,0.7516,0.7523,0.7607,0.763,0.7685,0.7576,0.7577,0.7578,0,0.7756,0.7744,0.7764,0.7734,0.7732,0.7739,0.7726,0.7724,0.7704,0.7688,0.7678,0.7647,0.7653,0.7617,0.7625,0.7605,0.7602,0.759,0.7591,0.759,0.7551,0.7609,0.7701,0.771,0.7589,0.7588,0.7587,0,0.783,0.7819,0.783,0.7822,0.7787,0.7793,0.7779,0.7757,0.7752,0.774,0.7737,0.7726,0.772,0.7713,0.768,0.7657,0.7692,0.7653,0.7679,0.768,0.7689,0.7689,0.7783,0.7687,0.7686,0.7686,0.7686,0,0.7898,0.7913,0.7863,0.787,0.7884,0.7844,0.786,0.7841,0.7822,0.7824,0.7784,0.7787,0.7743,0.7742,0.7716,0.7727,0.7725,0.7712,0.7705,0.7716,0.7718,0.7714,0.7709,0.7688,0.7688,0.7688,0.7687,0,0.7984,0.7951,0.796,0.7926,0.7918,0.793,0.7901,0.7906,0.7882,0.7886,0.7884,0.7847,0.7844,0.781,0.7799,0.7781,0.7802,0.7787,0.7809,0.7804,0.7832,0.783,0.7927,0.7938,0.7835,0.7836,0.7837,0,0.803,0.804,0.8007,0.8006,0.7993,0.7991,0.7986,0.7947,0.7944,0.7922,0.793,0.7922,0.7914,0.791,0.7883,0.7874,0.7859,0.7894,0.7858,0.7868,0.786,0.786,0.7861,0.7902,0.7903,0.7904,0.7905,0,0.8116,0.8099,0.8093,0.8082,0.8077,0.8066,0.8053,0.8054,0.8011,0.8009,0.8005,0.7999,0.7987,0.798,0.7967,0.7952,0.7922,0.7916,0.7922,0.7933,0.7946,0.794,0.783,0.7914,0.7913,0.7913,0.7912,0.7912,0.8183,0.819,0.8168,0.8163,0.8149,0.8137,0.814,0.8117,0.8113,0.81,0.8077,0.8076,0.8056,0.8034,0.8022,0.8021,0.8003,0.8011,0.8013,0.8016,0.8022,0.7945,0.8018,0.8018,0.8018,0.8017,0.8017,0,0.8267,0.8251,0.8247,0.8229,0.8225,0.8196,0.818,0.8179,0.8179,0.8162,0.8155,0.815,0.8144,0.8116,0.8106,0.8111,0.8096,0.8109,0.8109,0.8106,0.8038,0.8034,0.8121,0.8121,0.8121,0.8121,0.8121,0.8121,0.8311,0.8321,0.8302,0.8304,0.8287,0.8286,0.8279,0.8269,0.8255,0.8251,0.8246,0.8227,0.8206,0.8195,0.8188,0.818,0.8178,0.8196,0.8184,0.8121,0.8111,0.8101,0.8098,0.8196,0.8196,0.8252,0.8252,0.8253]},{"header":{"parameterUnit":"m.s-1","parameterCategory":1,"la1":30.2991,"la2":30.254,"lo1":-89.0895,"lo2":-89.0444,"dy":0.0017,"dx":0.0017,"nx":28,"ny":28,"refTime":"2025-02-25T09:00:00:Z","depth":0,"parameterNumber":3,"parameterNumberName":"V-component_of_WINDS"},"data":[0,0,0,0,0,0,0,0,0,0,0,0,0,0,0,0,0,0,0,0,0,0,0,0,0,0,0,0,0,0,0,0,0,0,0,0,0,0,0,0,0,0,0,0,0,0,0,0,0,0,0,0,0,0,0,0,0,0,-0.3763,-0.3763,0,-0.3804,-0.3804,-0.3805,-0.3829,-0.3829,-0.3829,-0.383,-0.3873,-0.3874,-0.3875,0,0,0,0,0,0,0,0,0,0,0,0,0,-0.3708,-0.3709,-0.3763,-0.3763,-0.3764,-0.3804,-0.3804,-0.3805,-0.3829,-0.3829,-0.3829,-0.383,-0.3873,-0.3874,-0.3875,0,0,0,0,0,0,0,0,0,0,0,0,0,-0.3739,-0.371,-0.3763,-0.3781,-0.3783,-0.3803,-0.3804,-0.3805,-0.3829,-0.3829,-0.3829,-0.383,-0.3872,-0.3874,-0.3875,-0.3882,0,0,-0.388,-0.3881,0,0,0,0,0,0,0,0,-0.3737,-0.3741,-0.3778,-0.378,-0.3782,-0.3811,-0.3801,-0.3831,-0.3829,-0.3812,-0.383,-0.383,-0.3853,-0.3856,-0.3863,-0.3884,-0.3886,-0.388,-0.3881,-0.3882,-0.3882,0,0,0,0,0,0,0,-0.3735,-0.3739,-0.3779,-0.3778,-0.3781,-0.3788,-0.3792,-0.3807,-0.3831,-0.3813,-0.3815,-0.3819,-0.3854,-0.3862,-0.3864,-0.3886,-0.388,-0.3882,-0.3883,-0.3883,-0.3916,-0.3916,0,0,0,0,0,0,-0.373,-0.3737,-0.3778,-0.378,-0.3759,-0.3788,-0.3794,-0.3802,-0.3831,-0.3835,-0.3819,-0.382,-0.3859,-0.3862,-0.3866,-0.3876,-0.3882,-0.3884,-0.3884,-0.3916,-0.3916,-0.3916,0,0,0,0,0,0,-0.3729,-0.3733,-0.3776,-0.3759,-0.3765,-0.3789,-0.3798,-0.3803,-0.381,-0.3835,-0.384,-0.3823,-0.3859,-0.3864,-0.3878,-0.3878,-0.3884,-0.3886,-0.3916,-0.3916,-0.3916,-0.3896,0,0,0,0,0,0,-0.3727,-0.3733,-0.3735,-0.3759,-0.3766,-0.3786,-0.3798,-0.3803,-0.3813,-0.3815,-0.384,-0.3844,-0.386,-0.3875,-0.3879,-0.388,-0.3887,-0.3916,-0.3916,-0.3916,-0.3896,-0.3895,-0.3894,0,0,0,0,0,-0.3725,-0.3727,-0.3734,-0.3739,-0.3769,-0.3786,-0.379,-0.3808,-0.3813,-0.3815,-0.3832,-0.3843,-0.3877,-0.3877,-0.3881,-0.3883,-0.3916,-0.3916,-0.3916,-0.3897,-0.3895,-0.3894,0,0,0,0,0,0,-0.3702,-0.3731,-0.3739,-0.375,-0.3765,-0.379,-0.3794,-0.3805,-0.382,-0.3821,-0.3843,-0.3849,-0.3861,-0.3873,-0.3872,-0.3891,-0.3898,-0.3899,-0.3882,-0.3881,-0.3879,-0.3876,-0.3888,0,0,0,0,0,-0.3699,-0.371,-0.3734,-0.3741,-0.3749,-0.377,-0.3778,-0.379,-0.3808,-0.3815,-0.3832,-0.3849,-0.3864,-0.3873,-0.3888,-0.3899,-0.3905,-0.3902,-0.39,-0.3899,-0.3899,-0.3907,-0.3906,-0.3915,-0.3915,-0.3915,0,0,-0.3691,-0.3708,-0.3714,-0.3737,-0.3751,-0.3762,-0.3775,-0.3787,-0.3796,-0.3817,-0.3831,-0.3844,-0.3865,-0.3878,-0.3884,-0.3888,-0.3899,-0.3899,-0.3898,-0.3899,-0.3907,-0.3906,-0.3905,-0.3915,-0.3915,-0.3915,0,0,-0.3683,-0.3697,-0.3704,-0.3718,-0.3738,-0.3753,-0.3754,-0.3778,-0.3788,-0.3802,-0.3818,-0.383,-0.3855,-0.3869,-0.3879,-0.3878,-0.389,-0.3882,-0.3875,-0.3882,-0.3881,-0.3881,-0.3881,-0.3881,-0.3883,-0.3883,-0.3883,0,-0.3671,-0.3689,-0.3707,-0.3718,-0.3728,-0.3747,-0.3755,-0.3768,-0.3792,-0.3799,-0.3804,-0.3836,-0.3851,-0.3868,-0.3867,-0.3875,-0.3879,-0.388,-0.388,-0.3879,-0.3879,-0.388,-0.388,-0.3882,-0.3882,-0.3882,-0.3882,0,-0.3673,-0.3685,-0.3689,-0.3712,-0.3723,-0.3732,-0.3753,-0.3762,-0.3774,-0.3788,-0.3803,-0.3822,-0.3842,-0.3847,-0.3858,-0.3865,-0.3867,-0.3875,-0.3883,-0.3877,-0.3878,-0.3878,-0.388,-0.3881,-0.3881,-0.3881,0,0,-0.3652,-0.3685,-0.3686,-0.3697,-0.3721,-0.3732,-0.3743,-0.3761,-0.3769,-0.3785,-0.3796,-0.3817,-0.3825,-0.3837,-0.385,-0.3856,-0.3855,-0.3864,-0.3865,-0.3862,-0.3865,-0.3859,-0.3859,-0.3863,-0.3863,-0.3863,-0.3864,0,-0.3648,-0.3667,-0.3685,-0.3699,-0.371,-0.3729,-0.3739,-0.3756,-0.377,-0.3782,-0.3798,-0.3813,-0.3822,-0.3829,-0.3836,-0.3853,-0.3856,-0.3854,-0.3874,-0.3874,-0.3868,-0.3859,-0.3852,-0.3852,-0.3864,-0.3864,-0.3864,0,-0.3645,-0.3661,-0.3675,-0.37,-0.3705,-0.3714,-0.3733,-0.3744,-0.3764,-0.3774,-0.3788,-0.3802,-0.3816,-0.3822,-0.3842,-0.384,-0.3849,-0.3859,-0.3859,-0.3862,-0.3868,-0.3862,-0.3852,-0.3852,-0.3865,-0.3865,-0.3865,0,-0.3628,-0.3653,-0.3665,-0.3674,-0.3702,-0.3708,-0.372,-0.374,-0.375,-0.3767,-0.3775,-0.3793,-0.3803,-0.3818,-0.3837,-0.384,-0.3855,-0.3863,-0.3864,-0.3864,-0.3867,-0.3866,-0.3859,-0.3872,-0.3872,-0.3872,-0.3872,0,-0.3622,-0.363,-0.3658,-0.3666,-0.3676,-0.3697,-0.3707,-0.3721,-0.3739,-0.375,-0.3768,-0.3778,-0.3803,-0.3817,-0.3832,-0.3847,-0.3851,-0.386,-0.3864,-0.3859,-0.3857,-0.3865,-0.3865,-0.3872,-0.3872,-0.3872,-0.3872,0,-0.3605,-0.3623,-0.3638,-0.3664,-0.3671,-0.3677,-0.37,-0.3709,-0.3724,-0.3738,-0.3743,-0.3767,-0.3784,-0.3805,-0.3829,-0.384,-0.3853,-0.3859,-0.3846,-0.3848,-0.3849,-0.3848,-0.3846,-0.3847,-0.3859,-0.3859,-0.3859,0,-0.3599,-0.3606,-0.3633,-0.3641,-0.3653,-0.3667,-0.3677,-0.3698,-0.3709,-0.3733,-0.3739,-0.3757,-0.3773,-0.38,-0.3821,-0.3839,-0.3846,-0.3844,-0.3849,-0.3844,-0.3847,-0.3846,-0.3847,-0.3842,-0.3842,-0.3842,-0.3842,0,-0.3588,-0.3597,-0.3611,-0.3629,-0.3642,-0.3657,-0.3673,-0.3679,-0.3704,-0.3715,-0.3733,-0.3745,-0.377,-0.3789,-0.381,-0.3824,-0.3837,-0.384,-0.3841,-0.3836,-0.3828,-0.3833,-0.3842,-0.384,-0.384,-0.384,-0.384,-0.384,-0.3577,-0.3584,-0.3604,-0.362,-0.3634,-0.3649,-0.3659,-0.3675,-0.369,-0.3711,-0.3723,-0.3741,-0.3762,-0.3792,-0.3806,-0.3821,-0.3825,-0.3827,-0.3828,-0.3828,-0.3826,-0.3826,-0.3825,-0.3825,-0.3825,-0.3825,-0.3825,0,-0.3566,-0.358,-0.3595,-0.3617,-0.3629,-0.364,-0.3659,-0.3669,-0.3684,-0.3702,-0.3718,-0.3739,-0.3757,-0.3779,-0.38,-0.3807,-0.3814,-0.3812,-0.3812,-0.3815,-0.3821,-0.3818,-0.3806,-0.3806,-0.3806,-0.3806,-0.3806,-0.3806,-0.3562,-0.3576,-0.3587,-0.3609,-0.3623,-0.364,-0.365,-0.3664,-0.3679,-0.3701,-0.3716,-0.373,-0.3751,-0.3773,-0.379,-0.3797,-0.3803,-0.38,-0.3807,-0.3813,-0.3814,-0.3816,-0.3813,-0.3801,-0.3801,-0.38,-0.38,-0.38]}]]